Temp
-5 -4 -4 -4 -3 -4 -4 -4 -5 -4 -4 -5 -5 -5 -4 -5 -5 -5 -4 -4 -4 -4 -5 -6 -6 -6 -6 -7 -7 -7 -7 -8 -8 -8 -8 -9 -9 -9 -8 -8 -8 -8 -8 -8 -8 -8 -8 -8 -8
-5 -5 -4 -3 -4 -4 -4 -4 -4 -5 -5 -5 -5 -4 -4 -4 -5 -5 -4 -5 -5 -4 -5 -6 -6 -6 -6 -7 -7 -7 -8 -8 -8 -8 -9 -9 -9 -9 -9 -9 -8 -8 -8 -8 -8 -7 -8 -8 -9
-4 -3 -4 -4 -4 -5 -5 -4 -4 -4 -3 -4 -4 -4 -4 -5 -5 -5 -5 -5 -5 -5 -5 -6 -6 -6 -7 -7 -7 -7 -8 -8 -8 -8 -9 -9 -9 -9 -9 -9 -9 -9 -8 -8 -7 -7 -8 -8 -8
-4 -4 -4 -4 -5 -5 -5 -4 -4 -5 -4 -5 -5 -5 -4 -5 -5 -5 -5 -5 -5 -5 -5 -6 -6 -6 -7 -7 -7 -7 -7 -8 -8 -8 -8 -8 -8 -8 -9 -9 -9 -9 -8 -8 -8 -9 -8 -9 -8
-4 -4 -5 -4 -4 -5 -5 -4 -5 -5 -5 -5 -5 -4 -4 -5 -5 -5 -5 -5 -5 -5 -5 -6 -6 -6 -7 -7 -7 -6 -7 -8 -8 -8 -8 -7 -7 -8 -9 -9 -8 -8 -8 -8 -8 -8 -8 -7 -8
-5 -5 -4 -4 -5 -4 -4 -4 -5 -5 -5 -5 -5 -5 -4 -5 -5 -6 -5 -5 -5 -5 -5 -6 -6 -6 -7 -7 -7 -7 -7 -7 -8 -8 -8 -7 -7 -8 -8 -8 -8 -8 -8 -9 -8 -9 -8 -7 -8
-5 -5 -5 -5 -5 -5 -4 -4 -4 -4 -5 -5 -5 -5 -4 -4 -5 -6 -6 -5 -6 -5 -5 -6 -6 -6 -6 -6 -7 -7 -7 -7 -7 -7 -8 -8 -8 -8 -8 -8 -8 -8 -8 -9 -8 -8 -8 -7 -7
-5 -6 -5 -6 -5 -5 -5 -4 -4 -4 -4 -5 -5 -5 -5 -4 -5 -6 -5 -5 -6 -6 -6 -5 -6 -6 -5 -6 -7 -7 -7 -7 -7 -7 -7 -7 -8 -8 -8 -8 -8 -8 -9 -9 -9 -9 -8 -7 -7
-5 -5 -6 -5 -6 -7 -6 -5 -4 -5 -4 -5 -5 -5 -5 -5 -5 -5 -5 -5 -5 -5 -6 -5 -6 -6 -6 -6 -6 -7 -7 -7 -7 -7 -8 -8 -7 -8 -8 -8 -8 -8 -9 -9 -9 -8 -8 -8 -7
-5 -5 -5 -7 -7 -6 -5 -5 -4 -4 -5 -5 -5 -5 -5 -5 -5 -5 -5 -4 -5 -5 -6 -6 -5 -5 -6 -6 -7 -7 -7 -7 -7 -7 -8 -8 -8 -8 -8 -8 -8 -8 -9 -8 -8 -8 -8 -8 -8
-4 -4 -5 -5 -5 -4 -4 -5 -4 -5 -5 -5 -5 -5 -5 -5 -5 -5 -5 -5 -5 -5 -6 -5 -5 -5 -5 -6 -7 -7 -7 -7 -8 -7 -8 -8 -8 -8 -9 -8 -8 -7 -8 -8 -8 -8 -8 -8 -8
-5 -5 -4 -5 -6 -6 -6 -6 -5 -5 -5 -5 -5 -5 -5 -5 -5 -5 -5 -5 -5 -5 -6 -5 -5 -5 -5 -6 -7 -7 -7 -7 -8 -8 -7 -8 -8 -8 -8 -8 -7 -7 -8 -8 -8 -8 -7 -8 -8
-5 -4 -4 -5 -5 -6 -6 -6 -6 -6 -5 -5 -4 -4 -5 -6 -6 -5 -5 -6 -5 -5 -5 -5 -4 -5 -5 -6 -7 -7 -7 -7 -8 -8 -7 -8 -8 -8 -8 -8 -7 -8 -7 -7 -7 -7 -7 -8 -7
-6 -6 -4 -4 -4 -5 -5 -6 -6 -5 -5 -5 -5 -5 -5 -5 -5 -6 -6 -6 -5 -5 -5 -5 -4 -5 -5 -5 -6 -6 -7 -7 -7 -7 -7 -7 -7 -8 -8 -8 -7 -7 -7 -7 -7 -7 -7 -7 -7
-7 -7 -5 -5 -5 -5 -6 -5 -5 -6 -6 -6 -6 -5 -5 -5 -5 -6 -6 -6 -5 -5 -5 -4 -5 -5 -5 -5 -6 -6 -6 -6 -7 -7 -7 -7 -7 -8 -8 -7 -8 -8 -7 -7 -7 -7 -7 -7 -7
-6 -7 -5 -6 -5 -5 -6 -7 -7 -6 -6 -6 -6 -6 -5 -5 -5 -6 -6 -6 -5 -5 -5 -4 -4 -4 -5 -5 -5 -6 -5 -6 -6 -6 -6 -7 -7 -8 -8 -8 -8 -8 -7 -7 -7 -7 -6 -7 -7
-7 -7 -7 -6 -5 -6 -6 -7 -6 -6 -6 -6 -6 -5 -6 -6 -6 -6 -6 -6 -5 -5 -5 -5 -4 -4 -5 -5 -4 -5 -5 -6 -6 -6 -6 -7 -7 -8 -8 -7 -7 -7 -7 -7 -7 -7 -7 -7 -7
-7 -7 -7 -7 -7 -6 -5 -6 -6 -5 -6 -6 -6 -5 -5 -5 -5 -6 -6 -5 -5 -5 -5 -5 -4 -4 -4 -4 -4 -4 -5 -6 -6 -7 -6 -7 -7 -7 -7 -8 -8 -7 -7 -7 -7 -7 -7 -7 -7
-7 -7 -7 -7 -7 -6 -6 -5 -6 -6 -6 -6 -8 -6 -6 -6 -5 -6 -6 -5 -5 -5 -5 -4 -4 -4 -4 -4 -4 -4 -5 -6 -6 -7 -7 -7 -7 -7 -8 -8 -8 -7 -7 -7 -7 -7 -7 -7 -7
-8 -8 -8 -8 -7 -6 -6 -6 -5 -6 -6 -6 -5 -6 -6 -6 -6 -5 -5 -5 -5 -5 -5 -4 -3 -4 -3 -4 -4 -4 -4 -6 -6 -7 -7 -7 -7 -7 -8 -8 -8 -8 -8 -8 -7 -7 -7 -7 -7
-8 -8 -8 -8 -8 -7 -6 -6 -6 -6 -7 -6 -6 -6 -6 -6 -6 -6 -5 -5 -5 -5 -4 -4 -3 -4 -3 -4 -4 -4 -4 -6 -6 -7 -6 -7 -8 -9 -9 -8 -8 -8 -8 -8 -8 -8 -7 -7 -6
-8 -8 -9 -8 -7 -6 -6 -7 -7 -6 -6 -6 -7 -7 -6 -6 -6 -6 -6 -5 -5 -4 -4 -3 -4 -4 -3 -3 -4 -4 -4 -5 -6 -6 -7 -7 -8 -9 -9 -9 -9 -9 -8 -8 -8 -8 -7 -7 -7
-8 -9 -9 -9 -7 -6 -6 -6 -6 -6 -6 -6 -7 -7 -7 -6 -6 -6 -6 -5 -5 -4 -4 -3 -3 -3 -3 -3 -3 -4 -4 -5 -6 -6 -7 -7 -7 -8 -9 -9 -9 -9 -9 -8 -8 -8 -7 -7 -7
-9 -10 -9 -9 -8 -6 -7 -7 -6 -6 -7 -6 -7 -7 -7 -6 -6 -6 -6 -5 -5 -4 -3 -3 -3 -3 -3 -3 -3 -4 -4 -5 -6 -6 -6 -7 -8 -8 -9 -9 -9 -9 -9 -9 -8 -8 -8 -7 -7
-9 -9 -10 -9 -8 -6 -7 -6 -6 -6 -6 -7 -7 -6 -6 -6 -5 -6 -5 -5 -4 -4 -3 -3 -3 -3 -3 -3 -3 -3 -4 -4 -5 -6 -6 -7 -8 -8 -9 -9 -9 -9 -9 -9 -8 -8 -8 -8 -8
-8 -8 -9 -8 -7 -7 -7 -5 -6 -5 -6 -6 -6 -6 -6 -6 -5 -5 -5 -5 -5 -5 -4 -3 -3 -3 -3 -3 -3 -3 -4 -4 -5 -6 -7 -7 -8 -8 -8 -8 -9 -9 -9 -9 -8 -8 -8 -8 -8
-9 -8 -8 -8 -7 -7 -8 -5 -6 -6 -6 -6 -6 -6 -6 -6 -6 -5 -5 -5 -4 -4 -4 -4 -3 -3 -3 -4 -3 -3 -3 -4 -5 -5 -6 -7 -7 -8 -8 -8 -8 -8 -8 -8 -8 -8 -8 -8 -8
-9 -9 -9 -8 -8 -7 -7 -6 -5 -6 -6 -6 -6 -5 -4 -4 -5 -5 -5 -5 -5 -4 -4 -4 -4 -3 -3 -3 -3 -3 -3 -4 -5 -5 -5 -6 -8 -8 -8 -8 -8 -8 -8 -8 -8 -8 -8 -8 -8
-9 -9 -9 -9 -9 -8 -6 -6 -6 -6 -7 -6 -6 -6 -6 -6 -4 -4 -5 -5 -4 -4 -4 -4 -4 -3 -3 -3 -3 -3 -3 -4 -4 -5 -5 -6 -7 -8 -8 -8 -8 -8 -8 -8 -8 -7 -8 -7 -8
-9 -9 -9 -9 -8 -8 -7 -6 -7 -6 -7 -6 -7 -7 -7 -7 -5 -5 -5 -5 -4 -4 -4 -3 -3 -3 -3 -3 -3 -3 -3 -4 -4 -5 -5 -6 -7 -8 -8 -8 -8 -8 -8 -8 -7 -7 -8 -8 -8
Height
5878 5876 5876 5876 5875 5877 5878 5882 5884 5887 5888 5892 5893 5892 5894 5895 5896 5900 5897 5896 5895 5895 5893 5892 5891 5890 5889 5888 5888 5887 5887 5885 5883 5882 5881 5880 5879 5879 5878 5876 5874 5873 5872 5870 5870 5870 5870 5870 5871
5877 5877 5877 5876 5873 5876 5881 5884 5887 5888 5890 5893 5895 5895 5895 5898 5898 5898 5898 5898 5898 5897 5895 5894 5893 5892 5891 5891 5890 5890 5888 5886 5884 5883 5881 5880 5879 5877 5878 5877 5875 5874 5873 5872 5870 5868 5870 5873 5871
5879 5877 5874 5875 5879 5881 5884 5885 5888 5891 5893 5894 5897 5898 5898 5898 5899 5901 5901 5900 5900 5898 5896 5895 5895 5894 5894 5893 5893 5892 5889 5887 5886 5884 5881 5879 5879 5879 5880 5878 5877 5877 5875 5873 5872 5870 5871 5871 5869
5878 5879 5878 5878 5882 5884 5885 5887 5889 5891 5895 5895 5897 5899 5900 5901 5900 5900 5901 5902 5901 5900 5898 5897 5897 5897 5896 5895 5895 5893 5891 5888 5886 5885 5883 5879 5878 5879 5880 5878 5878 5879 5878 5877 5875 5870 5870 5871 5869
5878 5879 5880 5880 5880 5885 5887 5889 5891 5892 5894 5897 5898 5900 5900 5901 5901 5901 5902 5903 5902 5902 5901 5899 5898 5899 5898 5897 5896 5895 5892 5890 5888 5887 5884 5882 5880 5880 5880 5880 5880 5880 5880 5880 5878 5876 5874 5872 5869
5880 5881 5881 5881 5883 5884 5887 5887 5890 5893 5896 5898 5899 5900 5900 5900 5901 5902 5903 5904 5903 5903 5903 5900 5900 5900 5900 5898 5898 5897 5895 5894 5892 5889 5888 5886 5885 5883 5882 5882 5882 5883 5882 5882 5880 5880 5878 5875 5872
5883 5882 5883 5883 5883 5884 5887 5888 5889 5892 5895 5898 5899 5900 5901 5899 5901 5902 5904 5904 5904 5904 5905 5902 5901 5901 5901 5900 5901 5899 5898 5895 5894 5893 5890 5889 5888 5887 5886 5885 5885 5885 5885 5885 5884 5884 5883 5879 5877
5885 5883 5883 5882 5882 5886 5889 5893 5891 5893 5896 5897 5900 5900 5901 5900 5901 5903 5904 5906 5905 5906 5906 5905 5902 5902 5902 5904 5903 5902 5901 5899 5896 5895 5894 5892 5890 5890 5889 5889 5889 5890 5888 5887 5886 5886 5885 5884 5880
5886 5886 5882 5883 5883 5886 5889 5894 5894 5894 5896 5898 5899 5901 5901 5901 5903 5905 5905 5906 5906 5906 5907 5907 5904 5903 5905 5906 5905 5904 5903 5901 5900 5898 5896 5894 5892 5891 5892 5892 5893 5892 5891 5891 5888 5889 5889 5887 5884
5888 5888 5886 5888 5890 5892 5892 5895 5894 5894 5896 5897 5900 5901 5902 5903 5904 5905 5906 5907 5907 5907 5908 5908 5906 5906 5906 5909 5908 5907 5906 5904 5902 5900 5898 5897 5895 5895 5895 5894 5895 5896 5895 5895 5894 5893 5892 5891 5888
5889 5888 5889 5889 5893 5893 5891 5896 5896 5895 5898 5899 5900 5901 5902 5903 5905 5907 5907 5908 5908 5909 5909 5909 5907 5908 5908 5909 5911 5910 5907 5905 5905 5903 5902 5900 5899 5898 5897 5899 5899 5900 5900 5898 5898 5897 5895 5895 5892
5888 5889 5891 5890 5891 5892 5894 5895 5895 5897 5899 5900 5901 5902 5902 5903 5905 5906 5907 5908 5910 5911 5909 5910 5909 5909 5911 5911 5912 5912 5909 5908 5907 5906 5905 5904 5902 5901 5902 5903 5903 5902 5902 5901 5901 5900 5899 5898 5896
5887 5889 5891 5893 5892 5895 5895 5894 5894 5897 5898 5899 5901 5902 5902 5903 5905 5906 5908 5910 5911 5911 5911 5910 5910 5911 5912 5913 5914 5913 5911 5910 5909 5909 5908 5907 5906 5906 5905 5905 5906 5906 5905 5904 5904 5903 5902 5901 5899
5890 5888 5889 5893 5892 5895 5894 5894 5895 5897 5897 5899 5901 5901 5902 5903 5905 5906 5908 5910 5910 5912 5912 5911 5911 5912 5913 5913 5915 5913 5913 5914 5913 5912 5911 5910 5910 5909 5908 5909 5909 5909 5908 5907 5906 5905 5904 5903 5901
5889 5889 5890 5890 5894 5893 5894 5894 5893 5895 5897 5898 5900 5901 5901 5901 5904 5905 5908 5910 5911 5912 5912 5912 5913 5913 5915 5913 5916 5914 5916 5916 5916 5916 5915 5914 5913 5912 5912 5911 5911 5911 5911 5910 5909 5909 5908 5906 5904
5887 5889 5888 5889 5892 5892 5894 5892 5893 5894 5896 5897 5900 5901 5900 5902 5902 5904 5907 5910 5911 5912 5913 5912 5915 5916 5916 5915 5917 5915 5917 5917 5917 5918 5918 5916 5915 5914 5914 5914 5914 5914 5914 5913 5912 5910 5910 5910 5908
5884 5887 5888 5889 5890 5892 5894 5895 5895 5897 5896 5896 5898 5899 5899 5902 5902 5903 5905 5910 5911 5913 5914 5915 5916 5918 5918 5917 5918 5918 5919 5919 5919 5920 5920 5919 5917 5917 5918 5917 5916 5916 5916 5914 5914 5912 5912 5911 5910
5882 5883 5886 5887 5890 5891 5892 5896 5897 5897 5896 5894 5894 5896 5897 5899 5901 5902 5904 5907 5909 5912 5915 5917 5918 5919 5920 5919 5920 5920 5920 5921 5922 5921 5922 5921 5920 5920 5920 5919 5919 5918 5917 5917 5915 5915 5914 5914 5912
5880 5880 5883 5887 5887 5888 5891 5892 5898 5898 5897 5894 5893 5893 5896 5898 5899 5902 5902 5905 5909 5911 5915 5918 5919 5920 5920 5920 5921 5921 5922 5923 5924 5923 5924 5924 5923 5923 5923 5923 5923 5921 5920 5917 5918 5917 5916 5915 5914
5876 5878 5881 5884 5885 5888 5889 5891 5895 5897 5897 5897 5896 5897 5895 5896 5897 5899 5903 5905 5908 5909 5914 5918 5920 5920 5921 5922 5923 5923 5924 5925 5926 5927 5927 5926 5925 5926 5926 5926 5926 5925 5923 5921 5918 5917 5916 5916 5914
5871 5874 5881 5882 5883 5886 5887 5889 5891 5894 5894 5895 5897 5898 5896 5895 5895 5897 5900 5904 5907 5910 5914 5917 5920 5920 5922 5923 5924 5925 5926 5928 5928 5930 5930 5929 5928 5928 5929 5928 5928 5928 5927 5925 5922 5919 5917 5915 5912
5866 5872 5877 5879 5880 5881 5883 5886 5887 5890 5893 5895 5895 5895 5896 5895 5895 5895 5899 5902 5906 5909 5912 5915 5919 5920 5923 5925 5926 5927 5928 5929 5930 5931 5932 5931 5930 5931 5932 5931 5931 5931 5929 5927 5924 5921 5918 5915 5912
5864 5869 5871 5873 5875 5876 5879 5882 5884 5886 5889 5890 5893 5894 5892 5893 5894 5894 5897 5901 5903 5908 5911 5914 5918 5921 5923 5925 5927 5928 5929 5930 5932 5934 5934 5933 5933 5933 5934 5934 5934 5933 5931 5929 5927 5924 5921 5918 5914
5861 5862 5865 5868 5870 5869 5875 5879 5880 5885 5887 5887 5889 5891 5890 5890 5892 5894 5895 5897 5903 5907 5910 5913 5917 5921 5923 5925 5928 5929 5930 5931 5932 5935 5935 5935 5935 5936 5936 5936 5935 5933 5932 5931 5929 5925 5922 5919 5916
5848 5854 5856 5861 5863 5872 5872 5874 5878 5881 5883 5884 5886 5887 5887 5889 5889 5892 5896 5898 5901 5907 5912 5913 5916 5920 5923 5925 5928 5929 5930 5931 5932 5934 5935 5935 5936 5937 5938 5938 5936 5935 5933 5931 5929 5926 5923 5919 5915
5843 5848 5848 5851 5860 5869 5866 5867 5876 5878 5880 5881 5883 5883 5884 5886 5888 5890 5891 5895 5899 5903 5910 5913 5914 5918 5922 5925 5927 5930 5930 5931 5933 5934 5936 5935 5936 5938 5938 5938 5937 5936 5934 5932 5929 5926 5923 5920 5916
5836 5837 5849 5850 5855 5856 5862 5865 5868 5872 5876 5879 5881 5882 5882 5882 5884 5887 5888 5891 5895 5900 5905 5911 5914 5916 5920 5923 5926 5929 5931 5931 5933 5934 5936 5936 5937 5938 5938 5938 5937 5936 5934 5933 5930 5926 5923 5920 5917
5824 5836 5839 5839 5844 5849 5855 5858 5864 5867 5873 5877 5878 5876 5875 5877 5882 5885 5888 5888 5892 5896 5900 5906 5911 5915 5918 5921 5925 5927 5930 5931 5932 5934 5935 5936 5937 5937 5937 5937 5937 5936 5935 5933 5930 5927 5924 5921 5917
5817 5820 5827 5832 5836 5842 5851 5851 5860 5865 5867 5873 5874 5876 5875 5874 5879 5884 5886 5888 5891 5894 5898 5903 5908 5913 5917 5920 5922 5926 5929 5930 5931 5933 5934 5935 5936 5937 5937 5936 5936 5935 5934 5932 5930 5926 5924 5921 5917
5808 5815 5821 5823 5831 5835 5841 5846 5858 5862 5864 5868 5870 5875 5876 5875 5879 5882 5884 5885 5889 5894 5898 5902 5905 5910 5915 5918 5920 5924 5926 5928 5930 5932 5933 5934 5935 5936 5936 5936 5935 5934 5933 5932 5929 5926 5923 5919 5916
Wind_Speed
5 3 4 1 6 16 10 15 17 18 20 15 12 17 17 14 11 7 7 8 6 7 8 8 8 8 9 10 11 11 13 13 12 10 8 8 7 6 5 5 6 8 10 10 10 8 4 2 4
11 11 6 5 8 19 14 23 22 21 22 17 12 16 16 14 10 8 8 6 6 6 7 8 7 8 9 11 12 12 12 13 14 13 14 11 9 9 1 5 7 11 13 14 13 9 3 2 1
10 10 10 18 11 15 10 15 18 17 15 13 11 14 14 14 8 6 5 6 7 5 7 8 8 9 10 10 11 12 14 14 14 12 13 11 7 8 2 6 8 11 15 15 16 18 13 6 2
9 8 23 19 19 17 18 16 12 15 14 15 13 7 13 8 7 6 6 5 7 5 6 8 7 9 10 9 11 12 15 15 14 17 20 18 9 4 3 7 6 11 14 19 22 22 20 19 15
7 5 6 19 18 18 21 17 15 13 16 16 14 12 10 5 5 6 5 6 5 4 6 8 7 9 8 9 10 17 17 16 14 17 16 20 17 12 10 11 13 13 15 19 20 24 25 23 17
12 10 14 19 19 20 18 19 15 14 15 14 14 9 9 6 7 8 7 6 4 3 5 6 7 9 8 10 14 15 14 16 17 14 18 18 16 14 12 12 11 14 14 18 18 26 31 27 32
15 3 15 17 19 17 15 16 16 15 13 13 13 11 7 7 9 10 8 7 4 4 5 6 7 10 11 12 14 12 17 18 18 16 13 14 12 11 11 9 11 13 16 16 19 25 30 33 37
5 11 2 13 15 19 18 15 17 16 14 11 10 9 9 10 12 11 11 6 4 6 7 6 9 12 12 14 13 14 17 16 12 14 15 14 11 13 11 12 13 16 18 20 23 32 35 32 33
3 7 14 14 25 18 17 11 15 16 13 12 10 10 13 12 12 12 11 7 6 7 8 6 9 12 14 15 14 14 15 17 18 16 14 13 14 16 16 16 17 16 21 21 35 25 24 27 29
9 10 13 25 19 19 14 14 15 15 15 12 10 10 11 9 10 10 9 6 9 8 7 5 8 13 11 15 16 17 18 16 14 16 15 15 17 20 20 20 21 23 24 26 22 23 22 25 26
8 11 10 18 16 13 14 9 10 13 10 10 10 9 11 11 12 10 8 6 9 8 6 4 8 11 9 14 16 16 15 15 16 18 19 18 20 20 20 19 21 23 23 21 22 22 22 22 22
6 11 12 15 18 16 13 11 17 14 11 9 9 12 13 12 11 10 9 6 7 7 6 4 10 9 9 11 14 12 17 17 17 20 19 18 20 20 20 20 20 20 20 21 19 19 20 20 20
9 6 9 13 18 20 17 15 12 9 10 9 6 7 11 12 13 12 11 8 6 7 6 8 9 10 10 13 12 14 20 17 18 19 19 19 21 18 19 18 17 18 18 19 19 19 19 19 19
8 10 14 11 22 18 17 16 15 13 13 11 6 7 8 12 14 16 15 10 5 7 9 10 10 11 10 15 10 16 20 19 18 17 17 20 19 17 17 15 16 18 19 19 20 20 19 18 18
13 13 13 16 13 17 14 15 15 12 12 10 7 5 7 10 13 14 14 12 8 8 12 13 11 12 13 14 9 17 19 19 18 17 17 19 21 19 17 18 20 20 19 20 21 21 21 21 20
15 14 17 15 9 17 16 15 14 13 12 10 7 5 6 6 11 17 16 12 11 9 12 13 12 13 12 12 11 16 18 18 18 15 16 19 22 24 22 19 18 18 18 19 20 20 19 19 20
22 18 13 12 14 13 17 12 11 9 10 11 7 5 6 6 9 15 17 16 14 14 15 14 12 11 13 12 13 15 17 18 17 15 15 16 19 18 17 17 17 17 17 19 19 22 21 19 17
22 25 25 21 15 11 10 8 9 10 10 11 9 5 4 6 8 15 19 17 17 16 15 14 13 12 12 12 13 14 16 17 15 15 13 14 16 15 16 16 16 16 17 19 18 17 16 16 14
24 25 26 24 24 19 13 16 13 8 8 8 6 7 5 4 8 15 19 20 18 19 18 17 15 12 12 11 12 13 16 15 15 14 12 14 15 14 15 15 15 16 17 19 18 16 16 15 13
29 30 30 22 24 17 20 12 11 8 4 2 2 3 5 6 6 16 21 23 21 23 22 19 16 13 13 11 12 12 15 15 14 13 11 13 15 15 14 15 15 16 16 18 17 17 16 15 14
34 33 28 23 25 23 20 13 13 15 8 6 2 4 4 4 9 15 24 26 24 25 25 21 17 14 12 12 11 11 13 13 14 11 11 14 16 17 15 14 15 15 16 16 16 17 17 17 17
40 34 29 26 22 27 23 22 17 17 12 10 7 5 5 5 7 17 27 29 26 29 27 22 18 16 12 11 10 10 11 12 12 10 10 12 14 15 15 15 16 15 15 16 16 18 18 19 18
42 34 30 23 23 27 31 29 21 15 13 6 2 8 6 2 7 17 25 29 29 29 27 24 20 17 14 12 10 9 9 11 11 9 10 12 13 13 15 15 15 14 15 15 16 17 18 18 20
40 40 35 31 27 32 32 33 22 16 7 7 1 7 7 3 4 16 27 31 28 29 29 26 22 19 15 13 10 9 9 9 12 9 9 11 13 12 13 13 13 14 15 16 17 20 22 22 22
45 46 41 40 35 20 25 28 24 23 15 8 3 3 5 7 7 13 20 27 29 27 28 26 23 20 17 14 12 9 8 8 9 9 7 11 10 9 10 9 10 11 12 15 18 20 22 25 26
46 48 53 46 34 29 24 35 23 22 17 11 9 8 8 11 8 13 22 26 29 28 28 28 25 22 19 16 14 10 9 8 7 7 6 9 7 7 7 5 7 10 12 15 18 20 22 24 26
45 50 47 47 41 44 33 26 25 21 17 14 11 13 14 18 14 16 23 26 30 34 32 29 27 24 21 19 15 12 10 9 7 6 6 7 7 7 6 2 6 8 13 15 18 20 21 21 22
49 45 47 52 48 46 36 33 27 21 16 14 12 17 26 20 16 17 22 24 30 34 34 33 30 26 23 20 17 14 12 9 8 6 5 5 7 7 5 1 4 8 11 14 17 19 20 20 21
49 51 51 52 51 47 40 42 30 21 15 13 4 6 5 16 22 20 22 23 28 35 36 34 32 28 23 21 19 16 12 10 8 6 5 4 5 5 3 1 4 5 9 13 16 18 20 23 24
48 50 50 53 52 49 45 45 30 27 18 14 8 8 3 5 15 19 22 27 29 31 34 35 32 28 24 22 20 17 16 13 10 9 7 6 7 7 3 2 5 4 7 10 15 19 23 26 28
Wind_Direction
330 226 250 278 167 128 133 148 135 126 116 115 116 113 116 120 116 113 101 93 102 83 90 89 73 56 40 26 10 8 8 0 7 3 353 344 338 320 24 26 16 11 351 346 353 337 314 265 70
334 320 281 200 140 134 108 125 124 121 114 110 125 124 113 105 114 126 120 122 94 76 79 77 65 50 35 24 17 17 12 13 17 15 7 354 353 22 175 16 354 350 358 6 8 1 30 85 176
340 342 109 178 121 105 114 130 112 85 111 130 122 119 111 113 118 115 116 109 90 84 78 67 54 46 35 27 29 32 28 25 32 31 21 17 9 34 30 344 338 357 14 20 30 48 69 86 348
358 41 125 106 108 103 113 127 130 104 90 123 127 106 95 113 121 140 126 109 93 90 75 63 51 47 40 36 50 49 41 47 67 62 57 51 42 75 44 348 47 36 32 36 47 54 54 43 37
25 49 146 147 124 132 124 127 132 118 108 116 113 104 93 63 123 138 134 100 84 90 76 64 54 50 46 58 65 57 51 63 82 68 58 56 56 79 83 80 62 56 49 45 50 54 47 48 51
91 114 161 130 124 127 138 131 122 113 126 122 125 122 115 115 141 153 137 112 96 73 71 75 65 61 69 75 71 62 61 51 52 41 58 57 63 74 78 70 67 62 59 62 53 58 65 66 73
48 86 145 160 145 143 145 138 121 115 116 123 144 141 137 119 148 153 133 119 127 94 62 70 72 83 88 83 83 76 66 49 76 75 85 53 67 67 71 69 55 64 62 63 67 72 81 80 73
14 13 138 55 172 149 143 141 124 118 111 117 151 173 190 129 138 139 126 123 124 96 76 66 93 99 90 79 83 66 67 60 76 71 69 60 62 54 55 60 56 70 68 69 81 77 83 82 73
6 347 66 70 145 125 127 138 128 121 120 116 129 147 171 145 124 133 125 128 121 100 94 70 96 102 93 91 82 71 66 61 73 65 60 65 63 65 69 71 70 76 73 77 71 77 82 73 68
89 82 66 72 100 120 136 160 151 135 134 127 130 154 161 156 147 135 124 128 110 102 111 85 98 102 103 91 86 72 70 72 76 80 77 76 72 71 73 72 75 72 78 73 79 80 72 71 68
109 75 61 91 116 124 122 163 146 124 134 131 145 150 153 156 143 137 138 132 104 96 113 104 99 111 106 93 75 74 69 67 82 70 78 77 73 75 77 76 78 83 82 80 86 72 73 62 62
162 100 73 112 124 104 125 123 116 111 96 120 149 165 156 149 157 156 160 130 123 97 116 121 102 120 107 91 77 81 68 75 82 77 79 80 79 79 77 73 76 73 67 74 68 65 65 67 60
202 141 110 114 118 112 119 113 110 89 93 97 132 168 181 182 173 161 162 156 132 107 140 114 113 126 112 104 92 78 75 80 81 88 84 85 88 83 75 68 66 65 61 63 66 67 66 67 61
184 150 142 147 131 117 110 103 98 96 85 79 96 143 172 181 172 173 170 152 150 128 137 127 123 130 111 97 98 74 79 82 88 85 92 92 86 84 79 77 75 70 63 63 64 64 69 70 68
202 205 157 147 130 122 117 112 95 89 85 76 77 105 147 161 174 178 177 165 162 139 133 132 133 128 114 92 84 78 78 83 89 84 96 91 87 90 90 80 71 68 63 60 60 61 66 67 64
239 214 173 185 163 150 152 111 111 115 106 89 90 100 110 162 162 178 182 184 157 152 139 133 138 123 110 99 84 78 73 81 86 80 95 89 88 87 85 83 82 77 72 66 62 61 60 63 70
234 213 218 203 148 167 143 140 128 128 124 117 105 109 118 143 173 184 184 180 162 161 149 152 145 134 120 104 89 82 73 79 86 94 99 98 89 89 81 75 73 68 60 61 57 55 56 63 59
224 222 215 213 199 186 201 176 167 162 152 139 112 125 130 149 191 191 190 174 166 163 157 161 150 137 121 109 93 84 74 76 84 94 94 97 92 83 74 67 60 54 52 56 52 48 52 50 49
220 226 217 205 205 196 208 214 176 186 168 150 140 136 154 165 184 199 190 177 171 168 168 166 156 143 125 113 99 90 79 79 83 91 93 101 98 92 82 73 63 54 43 41 48 49 45 36 31
220 217 218 218 223 223 217 218 207 175 56 16 248 236 161 158 183 192 192 181 178 172 174 170 159 146 129 119 99 94 87 84 83 94 98 101 98 90 81 71 61 54 47 39 30 30 29 26 23
220 225 216 231 227 232 215 188 196 177 150 130 90 307 281 232 175 189 189 183 178 176 177 172 163 151 136 123 107 104 99 96 91 94 93 93 92 89 85 75 64 58 57 49 42 31 22 17 8
217 221 214 225 242 238 220 193 190 171 146 115 70 355 314 287 218 182 192 183 182 179 178 173 164 158 147 133 122 114 109 104 96 92 95 92 92 92 85 76 67 59 51 46 34 28 20 10 3
214 220 220 224 234 228 215 207 187 174 138 137 331 323 314 293 258 181 187 191 185 179 179 177 171 163 156 146 137 126 120 117 110 101 98 94 93 88 84 77 71 60 50 44 34 24 17 13 6
213 218 222 222 228 225 203 192 186 173 189 186 185 280 304 270 248 200 189 189 188 185 182 179 173 170 165 156 150 138 128 125 132 123 104 94 88 89 80 73 61 51 42 32 27 20 15 14 12
211 211 222 222 223 211 194 197 186 187 191 192 221 244 254 245 212 209 197 195 187 191 189 182 177 174 172 167 161 153 140 127 130 133 125 106 99 94 83 71 52 38 29 21 17 17 12 10 10
214 214 220 220 214 187 202 199 180 189 204 208 241 237 214 205 238 214 199 197 194 192 196 192 183 180 177 175 172 167 152 133 126 137 155 122 118 111 98 71 41 27 18 14 11 11 9 8 9
210 217 219 225 222 223 227 203 191 191 202 227 247 257 238 244 225 220 205 197 195 193 193 194 192 185 182 182 178 175 165 153 148 145 160 141 144 133 134 80 36 17 16 13 6 4 5 6 11
210 214 216 222 222 225 219 214 199 191 203 238 274 281 257 230 212 215 199 191 197 193 192 194 195 190 188 183 182 181 177 167 158 162 156 163 152 152 160 7 15 16 4 3 5 4 8 13 15
206 209 215 219 223 225 221 224 208 190 194 206 138 278 318 225 205 214 193 192 198 197 194 195 194 195 192 185 185 188 183 176 175 170 177 173 185 174 178 285 339 352 2 360 3 9 15 16 16
208 208 214 220 222 226 223 221 210 200 204 182 202 159 114 296 211 217 206 193 197 204 201 198 196 196 196 193 187 192 188 180 176 181 196 196 202 203 219 309 309 350 1 11 12 17 17 15 10